Bloomington, IL

8:00 AM CST on December 17, 2017 (GMT -0600)
Central Ill Regional

Weather History for KBMI - September, 2013

Change the Weather History Date:

Thursday, September 19, 2013

  Actual Average Record
Temperature  
Mean Temperature 80 °F -  
Max Temperature 92 °F 85 °F 102 °F (2014)
Min Temperature 70 °F 65 °F 41 °F (2012)
Cooling Degree Days 16    
Growing Degree Days 30 (Base 50)    
Moisture  
Dew Point 69 °F    
Average Humidity 72    
Maximum Humidity 97    
Minimum Humidity 43    
Precipitation  
Precipitation 0.00 in - - ()
Sea Level Pressure  
Sea Level Pressure 29.90 in    
Wind  
Wind Speed 13 mph (SSW)    
Max Wind Speed 22 mph    
Max Gust Speed 28 mph    
Visibility 8 miles    
Events Rain    
Averages and records for this station are not official NWS values.
T = Trace of Precipitation, MM = Missing Value Source: NWS Daily Summary

Daily Weather History Graph

Daily Weather History Graph

Search for Another Location

Airport or City:

Trip Planner

Search our weather history database for the weather conditions in past years. The results will help you decide how hot, cold, wet, or windy it might be!

Date:

Astronomy

Sep. 19, 2013 Rise Set
Actual Time 6:40 AM CDT 6:57 PM CDT
Civil Twilight 6:13 AM CDT 7:24 PM CDT
Nautical Twilight 5:41 AM CDT 7:56 PM CDT
Astronomical Twilight 5:08 AM CDT 8:29 PM CDT
Moon 6:55 PM CDT (9/19) 6:49 AM CDT (9/19)
Length of Visible Light 13h 11m
Length of Day
12h 16m
Full, 100% of the Moon is Illuminated
Sep 19
Full
Sep 26
Last Quarter
Oct 4
New
Oct 11
First Quarter
Oct 18
Full

Hourly Weather History & Observations

Time (CDT) Temp. Heat Index Dew Point Humidity Pressure Visibility Wind Dir Wind Speed Gust Speed Precip Events Conditions
12:56 AM 70.9 °F - 70.0 °F 97% 29.96 in 6.0 mi South 10.4 mph - 0.00 in   Mostly Cloudy
1:56 AM 72.0 °F - 70.0 °F 93% 29.96 in 5.0 mi South 10.4 mph - 0.00 in Rain Light Rain
2:56 AM 72.0 °F - 70.0 °F 93% 29.95 in 6.0 mi SSW 12.7 mph - 0.00 in   Mostly Cloudy
3:56 AM 70.9 °F - 68.9 °F 93% 29.94 in 5.0 mi SSW 10.4 mph - N/A   Partly Cloudy
4:56 AM 70.9 °F - 68.9 °F 93% 29.93 in 6.0 mi SSW 12.7 mph - N/A   Clear
5:56 AM 70.9 °F - 68.9 °F 93% 29.94 in 6.0 mi SSW 12.7 mph - N/A   Clear
6:56 AM 70.9 °F - 70.0 °F 97% 29.95 in 4.0 mi SSW 13.8 mph - N/A   Clear
7:56 AM 72.9 °F - 70.0 °F 91% 29.95 in 5.0 mi SSW 12.7 mph - N/A   Clear
8:56 AM 74.8 °F - 70.0 °F 85% 29.95 in 8.0 mi SSW 15.0 mph - N/A   Partly Cloudy
9:56 AM 79.0 °F - 70.0 °F 74% 29.95 in 9.0 mi SW 17.3 mph - N/A   Clear
10:56 AM 82.9 °F 86.3 °F 68.9 °F 62% 29.94 in 9.0 mi SW 18.4 mph 24.2 mph N/A   Partly Cloudy
11:56 AM 88.0 °F 92.1 °F 68.9 °F 53% 29.92 in 10.0 mi SW 16.1 mph - N/A   Clear
12:56 PM 90.0 °F 93.6 °F 68.0 °F 48% 29.91 in 10.0 mi SW 15.0 mph - N/A   Clear
1:56 PM 90.9 °F 94.8 °F 68.0 °F 47% 29.89 in 10.0 mi WSW 11.5 mph - N/A   Clear
2:56 PM 91.9 °F 95.4 °F 66.9 °F 44% 29.87 in 10.0 mi SW 16.1 mph - N/A   Clear
3:56 PM 91.9 °F 95.4 °F 66.9 °F 44% 29.84 in 10.0 mi SW 15.0 mph - N/A   Partly Cloudy
4:56 PM 90.9 °F 93.1 °F 65.8 °F 43% 29.81 in 10.0 mi SW 15.0 mph 23.0 mph N/A   Clear
5:56 PM 88.0 °F 91.4 °F 68.0 °F 51% 29.80 in 10.0 mi SSW 13.8 mph - N/A   Clear
6:56 PM 82.9 °F 85.8 °F 68.0 °F 60% 29.85 in 10.0 mi SSW 10.4 mph - N/A   Clear
7:56 PM 79.9 °F - 68.9 °F 69% 29.85 in 10.0 mi SSW 10.4 mph - N/A   Clear
8:56 PM 79.9 °F - 68.9 °F 69% 29.84 in 10.0 mi South 12.7 mph - N/A   Clear
9:56 PM 77.9 °F - 70.0 °F 76% 29.83 in 10.0 mi South 13.8 mph - N/A   Clear
10:56 PM 79.9 °F - 70.9 °F 74% 29.83 in 10.0 mi SSW 21.9 mph 27.6 mph N/A   Clear
11:56 PM 79.0 °F - 70.9 °F 76% 29.83 in 10.0 mi SSW 20.7 mph 27.6 mph N/A   Clear